Regional Weather Roundup
Issued by NWS

Home | Current Version | Previous Version | Text Only | Print | Product List | Glossary Off
Versions: 1 2 3 4 5 6 7 8 9 10 11 12 13 14 15 16 17 18 19 20 21 22 23 24 25 26 27 28 29 30 31 32 33 34 35 36 37 38 39 40 41 42 43 44 45 46 47 48 49 50

000
ASUS43 KDTX 300001
RWRMI
MICHIGAN HOURLY REGIONAL WEATHER ROUNDUP
NATIONAL WEATHER SERVICE DETROIT/PONTIAC MI
800 PM EDT WED MAR 29 2017

NOTE: "FAIR" INDICATES FEW OR NO CLOUDS BELOW 12,000 FEET WITH NO
SIGNIFICANT WEATHER AND/OR OBSTRUCTION TO VISIBILITY.

MIZ047>049-052>055-059>063-066>070-074>076-081>083-300100-
SOUTHEAST LOWER MICHIGAN

CITY           SKY/WX    TMP DP  RH WIND       PRES   REMARKS
ADRIAN         CLOUDY    47  32  56 E9        30.19F
6HR MIN TEMP:  47; 6HR MAX TEMP:  54;

ALMA           CLOUDY    39  32  75 E12       30.24F WCI  32
ANN ARBOR      CLOUDY    48  33  56 SE7       30.21S
BAD AXE        CLOUDY    35  28  77 NE12      30.29F WCI  26
6HR MIN TEMP:  35; 6HR MAX TEMP:  43;

CARO           CLOUDY    38  32  78 NE6       30.27F WCI  34
DETROIT CITY   CLOUDY    44  32  62 NE15G21   30.25S
6HR MIN TEMP:  44; 6HR MAX TEMP:  56;

DETROIT        CLOUDY    48  27  44 SE6       30.24S
6HR MIN TEMP:  48; 6HR MAX TEMP:  56;

FLINT          CLOUDY    44  32  62 NE14      30.24F
6HR MIN TEMP:  44; 6HR MAX TEMP:  55;

GROSSE ILE     CLOUDY    46  32  58 CALM      30.22F
6HR MIN TEMP:  44; 6HR MAX TEMP:  49;

HILLSDALE      CLOUDY    46  34  61 E10G17    30.13F
HOWELL         CLOUDY    47  36  66 NE8       30.20F
6HR MIN TEMP:  47; 6HR MAX TEMP:  54;


CITY           SKY/WX    TMP DP  RH WIND       PRES   REMARKS
JACKSON        CLOUDY    49  35  58 E14G23    30.14F
6HR MIN TEMP:  49; 6HR MAX TEMP:  56;

LAMBERTVILLE   CLOUDY    48  31  51 E5        30.22S
6HR MIN TEMP:  48; 6HR MAX TEMP:  54;

LANSING        CLOUDY    44  35  70 NE15      30.20F
6HR MIN TEMP:  44; 6HR MAX TEMP:  54;

LAPEER         FAIR      42  31  64 NE13G18   30.25F
6HR MIN TEMP:  42; 6HR MAX TEMP:  55;

MASON          CLOUDY    46  38  75 E14       30.19F
MONROE         CLOUDY    46  32  58 S6        30.22R
6HR MIN TEMP:  46; 6HR MAX TEMP:  53;

MT. CLEMENS    CLOUDY    42  33  69 NE14      30.24S
6HR MIN TEMP:  42; 6HR MAX TEMP:  55;

PONTIAC        CLOUDY    46  33  60 E9        30.22F
6HR MIN TEMP:  46; 6HR MAX TEMP:  56;

PORT HOPE        N/A     35  30  82 NE13      30.30F WCI  26
6HR MIN TEMP:  35; 6HR MAX TEMP:  39;

PORT HURON     CLOUDY    37  30  75 NE8       30.28R WCI  31
TRI CITIES     CLOUDY    37  31  78 NE20      30.26F WCI  27
6HR MIN TEMP:  37; 6HR MAX TEMP:  45;

MIDLAND        FAIR      37  28  72 NE12G18   30.26F WCI  29
6HR MIN TEMP:  37; 6HR MAX TEMP:  45;

TROY           CLOUDY    47  31  52 NE14      30.26F
SAGINAW HB     CLOUDY    37  32  81 NE15      30.26F WCI  28
$$
MIZ043>046-050>051-056>058-064>065-071>073-077>080-300100-
SOUTHWEST LOWER MICHIGAN

CITY           SKY/WX    TMP DP  RH WIND       PRES   REMARKS
BATTLE CREEK   CLOUDY    51  33  50 E13       30.12F
6HR MIN TEMP:  51; 6HR MAX TEMP:  56;

BENTON HARBOR  CLOUDY    53  33  46 MISG      30.07F
6HR MIN TEMP:  53; 6HR MAX TEMP:  57;

BIG RAPIDS     CLOUDY    42  30  63 E14       30.19F
6HR MIN TEMP:  42; 6HR MAX TEMP:  54;

COLDWATER      MOCLDY    51  32  48 E12G18    30.12F
6HR MIN TEMP:  51; 6HR MAX TEMP:  56;

FREMONT        CLOUDY    47  32  56 E13G25    30.17S
HOLLAND        CLOUDY    51  34  52 E15       30.11F
6HR MIN TEMP:  51; 6HR MAX TEMP:  55;

GRAND RAPIDS   CLOUDY    46  35  65 E15       30.15F
6HR MIN TEMP:  46; 6HR MAX TEMP:  53;

KALAMAZOO      CLOUDY    52  32  46 E10       30.13F
6HR MIN TEMP:  52; 6HR MAX TEMP:  58;

LUDINGTON      CLOUDY    45  34  65 N6        30.17S
6HR MIN TEMP:  45; 6HR MAX TEMP:  50;

MARSHALL       CLOUDY    49  36  59 NE9G20    30.13F
6HR MIN TEMP:  49; 6HR MAX TEMP:  57;

MOUNT PLEASANT CLOUDY    39  28  65 E12       30.23F WCI  31
6HR MIN TEMP:  39; 6HR MAX TEMP:  54;

MUSKEGON       CLOUDY    52  32  46 E12       30.14F
6HR MIN TEMP:  51; 6HR MAX TEMP:  56;

SOUTH HAVEN    CLOUDY    51  32  48 E9G16     30.08F
$$
MIZ016>042-300100-
NORTHERN LOWER MICHIGAN

CITY           SKY/WX    TMP DP  RH WIND       PRES   REMARKS
ALPENA         CLOUDY    35  24  64 SE5       30.35F WCI  31
6HR MIN TEMP:  35; 6HR MAX TEMP:  43;

BEAVER ISLAND  MOCLDY    35  24  64 E9G17     30.29F WCI  28
6HR MIN TEMP:  35; 6HR MAX TEMP:  41;

BELLAIRE       CLOUDY    46  27  48 NE8       30.25F
6HR MIN TEMP:  46; 6HR MAX TEMP:  49;

CADILLAC       CLOUDY    43  32  66 E13       30.18F
CHARLEVOIX     MOCLDY    39  27  60 E10       30.29F WCI  33
6HR MIN TEMP:  38; 6HR MAX TEMP:  42;

FRANKFORT      CLOUDY    40  30  67 NE8       30.21F WCI  35
GAYLORD        CLOUDY    40  27  59 E10       30.25F WCI  33
6HR MIN TEMP:  40; 6HR MAX TEMP:  47;

HARBOR SPRINGS CLOUDY    38  25  60 NE14      30.29F WCI  29
HOUGHTON LAKE  CLOUDY    40  29  64 E17       30.24F WCI  31
6HR MIN TEMP:  40; 6HR MAX TEMP:  50;

MANISTEE       CLOUDY    45  33  63 NE13      30.18F
OSCODA         CLOUDY    35  25  67 NE6       30.33S WCI  30
6HR MIN TEMP:  35; 6HR MAX TEMP:  41;

PELLSTON       MOCLDY    38  21  50 E7        30.31F WCI  33
6HR MIN TEMP:  38; 6HR MAX TEMP:  43;

ROGERS CITY    CLOUDY    37  24  57 SE5       30.35S WCI  34
TRAVERSE CITY  CLOUDY    39  31  72 CALM      30.21F
6HR MIN TEMP:  39; 6HR MAX TEMP:  44;

$$
MIZ007>008-015-300100-
EASTERN UPPER MICHIGAN

CITY           SKY/WX    TMP DP  RH WIND       PRES   REMARKS
KINROSS        CLOUDY    36  21  54 S3        30.33F
6HR MIN TEMP:  36; 6HR MAX TEMP:  43;

MACKINAC ISLAN CLOUDY    35  21  56 SE7       30.31F WCI  29
6HR MIN TEMP:  34; 6HR MAX TEMP:  37;

NEWBERRY       CLOUDY    36  24  62 CALM      30.31S
6HR MIN TEMP:  36; 6HR MAX TEMP:  41;

S. S. MARIE    CLOUDY    40  24  53 S5        30.32F
6HR MIN TEMP:  40; 6HR MAX TEMP:  44;

MUNISING         N/A     33  30  88 CALM      30.30F
6HR MIN TEMP:  32; 6HR MAX TEMP:  34;

$$
MIZ004>006-011>014-085-300100-
CENTRAL UPPER MICHIGAN

CITY           SKY/WX    TMP DP  RH WIND       PRES   REMARKS
MANISTIQUE     PTCLDY    37  19  48 E6        30.29F WCI  32
6HR MIN TEMP:  37; 6HR MAX TEMP:  39;

ESCANABA       CLOUDY    38  27  64 NE3       30.28F
6HR MIN TEMP:  37; 6HR MAX TEMP:  43;

MENOMINEE        N/A     37  26  64 E12       30.25F WCI  29
6HR MIN TEMP:  37; 6HR MAX TEMP:  39;

SAWYER-GWINN   CLEAR     30  27  86 NE7       30.29S WCI  23
$$
MIZ001>003-009>011-084-300100-
WESTERN UPPER MICHIGAN

CITY           SKY/WX    TMP DP  RH WIND       PRES   REMARKS
IRON MOUNTAIN  CLOUDY    42  27  55 SE3       30.22F
6HR MIN TEMP:  42; 6HR MAX TEMP:  47;

HOUGHTON       MOCLDY    31  25  78 E10       30.27F WCI  22
6HR MIN TEMP:  31; 6HR MAX TEMP:  34;

COPPER HARBOR    N/A     33  25  72 S5        30.31F WCI  29
6HR MIN TEMP:  33; 6HR MAX TEMP:  36;

IRONWOOD       CLOUDY    47  30  51 E5        30.20F
6HR MIN TEMP:  47; 6HR MAX TEMP:  50;

$$

ABBREVIATIONS USED IN REMARKS
   TC - TEMPERATURE IN CELSIUS
  WCI - WIND CHILL INDEX
   HX - HEAT INDEX
  VSB - VISIBILITY




USA.gov is the U.S. government's official web portal to all federal, state and local government web resources and services.